Jaipur, India

1:46 PM IST on September 26, 2016 (GMT +0530)
Jaipur

Weather History for VIJP - October, 2013

Change the Weather History Date:

Monday, October 7, 2013

  Actual Average Record
Temperature  
Mean Temperature 84 °F -  
Max Temperature 93 °F - - ()
Min Temperature 75 °F - - ()
Cooling Degree Days 19    
Growing Degree Days 34 (Base 50)    
Moisture  
Dew Point 72 °F    
Average Humidity 69    
Maximum Humidity 94    
Minimum Humidity 39    
Precipitation  
Precipitation 0.00 in - - ()
Sea Level Pressure  
Sea Level Pressure 29.85 in    
Wind  
Wind Speed 1 mph ()    
Max Wind Speed 9 mph    
Max Gust Speed -    
Visibility 1.9 miles    
Events      
T = Trace of Precipitation, MM = Missing Value Source: Averaged Metar Reports

Daily Weather History Graph

Daily Weather History Graph

Search for Another Location

Airport or City:

Trip Planner

Search our weather history database for the weather conditions in past years. The results will help you decide how hot, cold, wet, or windy it might be!

Date:

Astronomy

Oct. 07, 2013 Rise Set
Actual Time 6:22 AM IST 6:06 PM IST
Civil Twilight 5:58 AM IST 6:29 PM IST
Nautical Twilight 5:31 AM IST 6:56 PM IST
Astronomical Twilight 5:05 AM IST 7:23 PM IST
Moon 8:27 AM IST (10/7) 7:46 PM IST (10/7)
Length of Visible Light 12h 31m
Length of Day
11h 44m
Waxing Crescent, 6% of the Moon is Illuminated
Oct 7
Waxing Crescent
Oct 12
First Quarter
Oct 19
Full
Oct 27
Last Quarter
Nov 3
New

Hourly Weather History & Observations

Time (IST) Temp. Heat Index Dew Point Humidity Pressure Visibility Wind Dir Wind Speed Gust Speed Precip Events Conditions
12:00 AM 78.8 °F - 71.6 °F 78% 29.86 in 1.9 mi Calm Calm - N/A   Scattered Clouds
1:00 AM 78.8 °F - 73.4 °F 83% 29.86 in 1.9 mi Calm Calm - N/A   Scattered Clouds
2:00 AM 78.8 °F - 73.4 °F 83% 29.86 in 1.9 mi Calm Calm - N/A   Scattered Clouds
2:30 AM 78 °F - 72 °F 77% 29.78 in 1 mi Calm Calm - -   Mist
3:00 AM 78.8 °F - 73.4 °F 83% 29.86 in 1.9 mi Calm Calm - N/A   Scattered Clouds
5:00 AM 77.0 °F - 73.4 °F 89% 29.86 in 1.9 mi Calm Calm - N/A   Scattered Clouds
5:30 AM 76 °F - 71 °F 82% 29.80 in 1 mi Calm Calm - -   Mist
6:00 AM 75.2 °F - 73.4 °F 94% 29.86 in 1.9 mi Calm Calm - N/A   Scattered Clouds
7:00 AM 77.0 °F - 73.4 °F 89% 29.89 in 1.9 mi Calm Calm - N/A   Scattered Clouds
8:00 AM 78.8 °F - 73.4 °F 83% 29.92 in 1.9 mi East 5.8 mph - N/A   Partly Cloudy
9:00 AM 82.4 °F 88.2 °F 73.4 °F 74% 29.92 in 1.9 mi ESE 3.5 mph - N/A   Partly Cloudy
10:00 AM 84.2 °F 90.9 °F 73.4 °F 70% 29.92 in 1.9 mi South 3.5 mph - N/A   Haze
11:00 AM 86.0 °F 91.8 °F 71.6 °F 62% 29.92 in 2.5 mi Calm Calm - N/A   Haze
11:30 AM 89 °F - 73 °F 51% 29.80 in 2 mi Calm Calm - -   Haze
11:30 AM 87.8 °F 93.8 °F 71.6 °F 58% 29.89 in 2.5 mi Calm Calm - N/A   Haze
12:00 PM 89.6 °F 98.2 °F 73.4 °F 59% 29.89 in 2.5 mi Variable 2.3 mph - N/A   Haze
1:00 PM 89.6 °F 96.2 °F 71.6 °F 55% 29.86 in 2.2 mi Variable 2.3 mph - N/A   Haze
2:00 PM 91.4 °F 96.8 °F 69.8 °F 49% 29.83 in 2.2 mi ENE 4.6 mph - N/A   Haze
2:30 PM 91 °F - 69 °F 39% 29.73 in 2 mi NNW 4.6 mph - -   Haze
3:00 PM 93.2 °F 98.8 °F 69.8 °F 46% 29.80 in 2.5 mi Variable 5.8 mph - N/A   Haze
4:00 PM 89.6 °F 96.2 °F 71.6 °F 55% 29.80 in 2.5 mi ESE 9.2 mph - N/A   Haze
5:00 PM 87.8 °F 93.8 °F 71.6 °F 58% 29.80 in 2.5 mi ESE 8.1 mph - N/A   Haze
5:30 PM 87 °F - 71 °F 49% 29.71 in 2 mi SE 4.6 mph - -   Haze
7:00 PM 86.0 °F 91.8 °F 71.6 °F 62% 29.83 in 1.6 mi Variable 1.2 mph - N/A   Haze
8:00 PM 82.4 °F 88.2 °F 73.4 °F 74% 29.86 in 1.6 mi Calm Calm - N/A   Haze
8:30 PM 83 °F - 72 °F 62% 29.77 in 1 mi Calm Calm - -   Haze
9:00 PM 80.6 °F 84.6 °F 71.6 °F 74% 29.89 in 1.6 mi Calm Calm - N/A   Haze
10:00 PM 80.6 °F 84.6 °F 71.6 °F 74% 29.89 in 1.6 mi Calm Calm - N/A   Haze
11:00 PM 80.6 °F 84.6 °F 71.6 °F 74% 29.89 in 1.6 mi Calm Calm - N/A   Haze
11:30 PM 79 °F - 72 °F 75% 29.81 in 1 mi Calm Calm - -   Haze